^^
Station Historical Data
Daily Summary for April 26, 2021 Units:  English    Metric   Both
Daily Weekly Monthly Yearly
  High: Low: Average:
Temperature: 43.3 °F 33.3 °F 38.3 °F
Dew Point: 35.9 °F 25.6 °F 29.1 °F
Humidity: 81% 56% 70%
Wind Speed: 8mph 1mph 3.7mph
Wind Gust: 10mph - -
Wind- - ESE
Pressure: 30.26 in 29.92 in -
Precipitation: 0.06 in    
 
 
Tabular Data for April 26, 2021
Time Temperature Dew Point Pressure Wind Wind Speed Wind Gust Humidity Rainfall Rate (Hourly) solar
00:00 36.1 °F 27.3 °F 30.16 in ENE 4 mph 4 mph 70% 0.00 in 0 W/m2
00:05 36.1 °F 27.3 °F 30.15 in East 4 mph 7 mph 70% 0.00 in 0 W/m2
00:10 36.1 °F 27.6 °F 30.16 in ENE 4 mph 4 mph 71% 0.00 in 0 W/m2
00:15 36.1 °F 27.3 °F 30.16 in ENE 4 mph 4 mph 70% 0.00 in 0 W/m2
00:20 36.1 °F 27.6 °F 30.16 in East 4 mph 4 mph 71% 0.00 in 0 W/m2
00:25 36 °F 27.8 °F 30.16 in NE 4 mph 4 mph 72% 0.00 in 0 W/m2
00:30 36 °F 27.5 °F 30.16 in ENE 4 mph 4 mph 71% 0.00 in 0 W/m2
00:35 36 °F 27.8 °F 30.16 in NNE 5 mph 5 mph 72% 0.00 in 0 W/m2
00:40 35.9 °F 27.7 °F 30.16 in NE 5 mph 5 mph 72% 0.00 in 0 W/m2
00:45 35.9 °F 27.7 °F 30.16 in ENE 4 mph 5 mph 72% 0.00 in 0 W/m2
00:50 35.9 °F 27.7 °F 30.17 in ENE 4 mph 4 mph 72% 0.00 in 0 W/m2
00:55 35.9 °F 27.7 °F 30.17 in ENE 4 mph 4 mph 72% 0.00 in 0 W/m2
01:00 35.9 °F 27.7 °F 30.17 in NNE 3 mph 3 mph 72% 0.00 in 0 W/m2
01:05 35.8 °F 27.7 °F 30.17 in East 4 mph 4 mph 72% 0.00 in 0 W/m2
01:10 35.8 °F 27.7 °F 30.17 in ENE 3 mph 6 mph 72% 0.00 in 0 W/m2
01:15 35.9 °F 27.7 °F 30.17 in East 3 mph 6 mph 72% 0.00 in 0 W/m2
01:20 35.9 °F 27.7 °F 30.17 in North 3 mph 3 mph 72% 0.00 in 0 W/m2
01:25 35.9 °F 28.1 °F 30.17 in ENE 3 mph 3 mph 73% 0.00 in 0 W/m2
01:30 35.8 °F 28 °F 30.17 in NNE 3 mph 3 mph 73% 0.00 in 0 W/m2
01:35 35.8 °F 27.7 °F 30.18 in East 3 mph 3 mph 72% 0.00 in 0 W/m2
01:40 35.9 °F 27.7 °F 30.18 in East 3 mph 7 mph 72% 0.00 in 0 W/m2
01:45 35.8 °F 27.7 °F 30.17 in East 3 mph 7 mph 72% 0.00 in 0 W/m2
01:50 35.9 °F 27.7 °F 30.18 in ENE 3 mph 5 mph 72% 0.00 in 0 W/m2
01:55 35.9 °F 27.4 °F 30.18 in NNE 4 mph 5 mph 71% 0.00 in 0 W/m2
02:00 35.9 °F 27.4 °F 30.18 in ENE 4 mph 4 mph 71% 0.00 in 0 W/m2
02:05 36 °F 27.5 °F 30.19 in ENE 3 mph 4 mph 71% 0.00 in 0 W/m2
02:10 36 °F 27.5 °F 30.19 in ENE 2 mph 2 mph 71% 0.00 in 0 W/m2
02:15 36.1 °F 27.6 °F 30.18 in North 2 mph 5 mph 71% 0.00 in 0 W/m2
02:20 36.2 °F 27.7 °F 30.19 in NE 2 mph 3 mph 71% 0.00 in 0 W/m2
02:25 36.2 °F 27.4 °F 30.18 in NNE 3 mph 3 mph 70% 0.00 in 0 W/m2
02:30 36.3 °F 27.8 °F 30.18 in NE 3 mph 3 mph 71% 0.00 in 0 W/m2
02:35 36.3 °F 27.4 °F 30.19 in East 3 mph 3 mph 70% 0.00 in 0 W/m2
02:40 36.4 °F 27.9 °F 30.19 in East 2 mph 2 mph 71% 0.00 in 0 W/m2
02:45 36.4 °F 27.9 °F 30.19 in ENE 2 mph 2 mph 71% 0.00 in 0 W/m2
02:50 36.4 °F 27.9 °F 30.19 in North 3 mph 3 mph 71% 0.00 in 0 W/m2
02:55 36.4 °F 27.5 °F 30.19 in North 3 mph 3 mph 70% 0.00 in 0 W/m2
03:00 36.4 °F 27.5 °F 30.18 in NE 2 mph 3 mph 70% 0.00 in 0 W/m2
03:05 36.5 °F 28 °F 30.18 in ENE 3 mph 4 mph 71% 0.00 in 0 W/m2
03:10 36.5 °F 26.9 °F 30.19 in NNE 3 mph 3 mph 68% 0.00 in 0 W/m2
03:15 36.5 °F 26.9 °F 30.19 in East 2 mph 3 mph 68% 0.00 in 0 W/m2
03:20 36.5 °F 26.9 °F 30.19 in ENE 3 mph 4 mph 68% 0.00 in 0 W/m2
03:25 36.6 °F 27 °F 30.19 in ENE 3 mph 4 mph 68% 0.00 in 0 W/m2
03:30 36.6 °F 27.4 °F 30.19 in NE 3 mph 4 mph 69% 0.00 in 0 W/m2
03:35 36.6 °F 27 °F 30.19 in ENE 3 mph 5 mph 68% 0.00 in 0 W/m2
03:40 36.6 °F 27.4 °F 30.19 in ENE 3 mph 3 mph 69% 0.00 in 0 W/m2
03:45 36.6 °F 27.4 °F 30.19 in East 3 mph 3 mph 69% 0.00 in 0 W/m2
03:50 36.6 °F 27.4 °F 30.19 in ENE 3 mph 3 mph 69% 0.00 in 0 W/m2
03:55 36.6 °F 27.4 °F 30.19 in ENE 3 mph 4 mph 69% 0.00 in 0 W/m2
04:00 36.5 °F 27.3 °F 30.20 in ENE 3 mph 3 mph 69% 0.00 in 0 W/m2
04:05 36.4 °F 27.5 °F 30.20 in ENE 3 mph 3 mph 70% 0.00 in 0 W/m2
04:10 36.4 °F 27.2 °F 30.20 in East 3 mph 3 mph 69% 0.00 in 0 W/m2
04:15 36.3 °F 27.1 °F 30.20 in East 3 mph 3 mph 69% 0.00 in 0 W/m2
04:20 36.2 °F 27 °F 30.20 in East 3 mph 3 mph 69% 0.00 in 0 W/m2
04:25 36.1 °F 27.3 °F 30.19 in ESE 2 mph 3 mph 70% 0.00 in 0 W/m2
04:30 36 °F 27.2 °F 30.19 in ESE 2 mph 3 mph 70% 0.00 in 0 W/m2
04:35 35.8 °F 27.3 °F 30.20 in ESE 3 mph 3 mph 71% 0.00 in 0 W/m2
04:40 35.6 °F 27.1 °F 30.20 in East 3 mph 3 mph 71% 0.00 in 0 W/m2
04:45 35.5 °F 26.7 °F 30.20 in ESE 2 mph 3 mph 70% 0.00 in 0 W/m2
04:50 35.3 °F 26.8 °F 30.20 in ESE 2 mph 2 mph 71% 0.00 in 0 W/m2
04:55 35.2 °F 26.7 °F 30.20 in ESE 3 mph 3 mph 71% 0.00 in 0 W/m2
05:00 35 °F 26.5 °F 30.20 in East 2 mph 2 mph 71% 0.00 in 0 W/m2
05:05 34.9 °F 26.4 °F 30.20 in East 2 mph 2 mph 71% 0.00 in 0 W/m2
05:10 34.8 °F 26.4 °F 30.21 in East 2 mph 2 mph 71% 0.00 in 0 W/m2
05:15 34.6 °F 26.2 °F 30.21 in East 2 mph 2 mph 71% 0.00 in 0 W/m2
05:20 34.5 °F 26.1 °F 30.21 in East 2 mph 2 mph 71% 0.00 in 0 W/m2
05:25 34.4 °F 26 °F 30.21 in East 2 mph 3 mph 71% 0.00 in 0 W/m2
05:30 34.3 °F 25.9 °F 30.21 in East 2 mph 3 mph 71% 0.00 in 0 W/m2
05:35 34.1 °F 25.7 °F 30.20 in East 2 mph 3 mph 71% 0.00 in 0 W/m2
05:40 34 °F 25.9 °F 30.20 in East 2 mph 3 mph 72% 0.00 in 0 W/m2
05:45 33.9 °F 25.8 °F 30.21 in SE 3 mph 3 mph 72% 0.00 in 0 W/m2
05:50 33.8 °F 25.7 °F 30.21 in ESE 2 mph 4 mph 72% 0.00 in 0 W/m2
05:55 33.7 °F 26 °F 30.21 in ESE 2 mph 4 mph 73% 0.00 in 0 W/m2
06:00 33.6 °F 25.9 °F 30.21 in East 2 mph 2 mph 73% 0.00 in 0 W/m2
06:05 33.5 °F 25.8 °F 30.21 in East 3 mph 3 mph 73% 0.00 in 0 W/m2
06:10 33.5 °F 25.8 °F 30.21 in ESE 3 mph 3 mph 73% 0.00 in 0 W/m2
06:15 33.4 °F 26 °F 30.21 in East 2 mph 4 mph 74% 0.00 in 0 W/m2
06:20 33.4 °F 26 °F 30.20 in ESE 3 mph 4 mph 74% 0.00 in 0 W/m2
06:25 33.4 °F 26 °F 30.21 in ESE 3 mph 4 mph 74% 0.00 in 0 W/m2
06:30 33.4 °F 25.7 °F 30.21 in SE 3 mph 3 mph 73% 0.00 in 5 W/m2
06:35 33.3 °F 25.6 °F 30.21 in ESE 3 mph 3 mph 73% 0.00 in 7 W/m2
06:40 33.4 °F 26 °F 30.20 in ESE 2 mph 6 mph 74% 0.00 in 9 W/m2
06:45 33.3 °F 25.6 °F 30.21 in East 3 mph 6 mph 73% 0.00 in 11 W/m2
06:50 33.4 °F 25.7 °F 30.21 in ESE 3 mph 4 mph 73% 0.00 in 14 W/m2
06:55 33.4 °F 26 °F 30.21 in ESE 3 mph 4 mph 74% 0.00 in 18 W/m2
07:00 33.4 °F 25.7 °F 30.21 in ESE 3 mph 3 mph 73% 0.00 in 23 W/m2
07:05 33.4 °F 25.7 °F 30.21 in East 3 mph 3 mph 73% 0.00 in 28 W/m2
07:10 33.5 °F 25.8 °F 30.22 in East 3 mph 3 mph 73% 0.00 in 33 W/m2
07:15 33.5 °F 25.8 °F 30.23 in ESE 3 mph 3 mph 73% 0.00 in 54 W/m2
07:20 33.6 °F 25.9 °F 30.22 in East 3 mph 3 mph 73% 0.00 in 69 W/m2
07:25 33.7 °F 26 °F 30.22 in ESE 3 mph 3 mph 73% 0.00 in 67 W/m2
07:30 33.8 °F 25.7 °F 30.22 in East 3 mph 3 mph 72% 0.00 in 77 W/m2
07:35 34 °F 25.9 °F 30.23 in East 3 mph 3 mph 72% 0.00 in 81 W/m2
07:40 34.1 °F 26 °F 30.23 in East 3 mph 4 mph 72% 0.00 in 84 W/m2
07:45 34.3 °F 26.2 °F 30.24 in East 3 mph 4 mph 72% 0.00 in 105 W/m2
07:50 34.4 °F 26.3 °F 30.24 in ESE 2 mph 4 mph 72% 0.00 in 130 W/m2
07:55 34.8 °F 26.7 °F 30.23 in ESE 3 mph 6 mph 72% 0.00 in 172 W/m2
08:00 35.1 °F 26.6 °F 30.23 in ENE 4 mph 5 mph 71% 0.00 in 146 W/m2
08:05 35.5 °F 26.7 °F 30.23 in East 4 mph 5 mph 70% 0.00 in 105 W/m2
08:10 35.6 °F 26.8 °F 30.23 in East 5 mph 5 mph 70% 0.00 in 111 W/m2
08:15 35.7 °F 26.5 °F 30.23 in ENE 4 mph 5 mph 69% 0.00 in 130 W/m2
08:20 35.9 °F 26.7 °F 30.23 in East 4 mph 4 mph 69% 0.00 in 93 W/m2
08:25 36 °F 27.5 °F 30.22 in ESE 4 mph 4 mph 71% 0.00 in 74 W/m2
08:30 36.1 °F 27.3 °F 30.23 in East 5 mph 5 mph 70% 0.00 in 76 W/m2
08:35 36 °F 26.5 °F 30.23 in East 5 mph 5 mph 68% 0.00 in 116 W/m2
08:40 36.1 °F 27.6 °F 30.23 in ESE 5 mph 5 mph 71% 0.00 in 128 W/m2
08:45 36.2 °F 27.7 °F 30.24 in ESE 4 mph 5 mph 71% 0.00 in 98 W/m2
08:50 36.2 °F 27.4 °F 30.23 in ESE 4 mph 4 mph 70% 0.00 in 102 W/m2
08:55 36.2 °F 27.7 °F 30.23 in ESE 4 mph 4 mph 71% 0.00 in 113 W/m2
09:00 36.3 °F 27.4 °F 30.23 in SE 4 mph 4 mph 70% 0.00 in 123 W/m2
09:05 36.4 °F 27.5 °F 30.24 in ESE 4 mph 4 mph 70% 0.00 in 151 W/m2
09:10 36.4 °F 27.2 °F 30.25 in SE 4 mph 4 mph 69% 0.00 in 120 W/m2
09:15 36.5 °F 28 °F 30.25 in ESE 3 mph 4 mph 71% 0.00 in 93 W/m2
09:20 36.5 °F 27.3 °F 30.25 in ESE 3 mph 6 mph 69% 0.00 in 77 W/m2
09:25 36.4 °F 27.2 °F 30.25 in ESE 3 mph 6 mph 69% 0.00 in 83 W/m2
09:30 36.5 °F 27.6 °F 30.25 in ESE 3 mph 4 mph 70% 0.00 in 79 W/m2
09:35 36.6 °F 28.4 °F 30.25 in SE 3 mph 4 mph 72% 0.00 in 70 W/m2
09:40 36.6 °F 27.7 °F 30.25 in ESE 3 mph 4 mph 70% 0.00 in 84 W/m2
09:45 36.6 °F 27.7 °F 30.26 in ESE 3 mph 4 mph 70% 0.00 in 109 W/m2
09:50 36.7 °F 27.1 °F 30.25 in ESE 3 mph 3 mph 68% 0.00 in 77 W/m2
09:55 36.7 °F 27.1 °F 30.25 in East 2 mph 3 mph 68% 0.00 in 98 W/m2
10:00 36.8 °F 28.3 °F 30.25 in SE 3 mph 3 mph 71% 0.00 in 137 W/m2
10:05 36.9 °F 27.7 °F 30.25 in SE 3 mph 3 mph 69% 0.00 in 142 W/m2
10:10 37 °F 28.1 °F 30.26 in SSW 2 mph 2 mph 70% 0.00 in 91 W/m2
10:15 37 °F 27.4 °F 30.26 in ENE 2 mph 2 mph 68% 0.00 in 88 W/m2
10:20 37.1 °F 28.2 °F 30.25 in SW 2 mph 2 mph 70% 0.00 in 139 W/m2
10:25 37.2 °F 28.7 °F 30.25 in SE 2 mph 3 mph 71% 0.00 in 158 W/m2
10:30 37.3 °F 28.4 °F 30.25 in ESE 3 mph 3 mph 70% 0.00 in 141 W/m2
10:35 37.3 °F 28.1 °F 30.25 in SE 3 mph 3 mph 69% 0.00 in 128 W/m2
10:40 37.5 °F 28.6 °F 30.25 in South 3 mph 4 mph 70% 0.00 in 130 W/m2
10:45 37.5 °F 28.2 °F 30.25 in SSE 2 mph 4 mph 69% 0.00 in 151 W/m2
10:50 37.6 °F 28.7 °F 30.25 in SE 3 mph 3 mph 70% 0.00 in 162 W/m2
10:55 37.7 °F 28.4 °F 30.25 in ESE 3 mph 3 mph 69% 0.00 in 146 W/m2
11:00 37.7 °F 28.8 °F 30.24 in ESE 3 mph 3 mph 70% 0.00 in 135 W/m2
11:05 37.7 °F 28.4 °F 30.24 in ESE 3 mph 3 mph 69% 0.00 in 151 W/m2
11:10 37.8 °F 28.2 °F 30.24 in SE 3 mph 3 mph 68% 0.00 in 148 W/m2
11:15 37.9 °F 28.6 °F 30.24 in ESE 3 mph 4 mph 69% 0.00 in 130 W/m2
11:20 38.1 °F 28.8 °F 30.25 in ESE 3 mph 3 mph 69% 0.00 in 123 W/m2
11:25 38.1 °F 28.5 °F 30.25 in ESE 3 mph 4 mph 68% 0.00 in 118 W/m2
11:30 38.1 °F 28.8 °F 30.24 in ESE 3 mph 6 mph 69% 0.00 in 135 W/m2
11:35 38.2 °F 28.6 °F 30.24 in SE 3 mph 6 mph 68% 0.00 in 98 W/m2
11:40 38.2 °F 28.2 °F 30.24 in NE 3 mph 3 mph 67% 0.00 in 74 W/m2
11:45 38.2 °F 28.2 °F 30.24 in East 3 mph 3 mph 67% 0.00 in 76 W/m2
11:50 38.2 °F 28.6 °F 30.24 in East 3 mph 8 mph 68% 0.00 in 76 W/m2
11:55 38.1 °F 28.1 °F 30.23 in ESE 3 mph 8 mph 67% 0.00 in 95 W/m2
12:00 38 °F 28.4 °F 30.23 in ENE 4 mph 5 mph 68% 0.00 in 132 W/m2
12:05 38 °F 28.4 °F 30.22 in ESE 4 mph 6 mph 68% 0.00 in 144 W/m2
12:10 38.1 °F 29.2 °F 30.22 in SE 4 mph 5 mph 70% 0.00 in 134 W/m2
12:15 38.2 °F 29.3 °F 30.22 in East 5 mph 5 mph 70% 0.00 in 130 W/m2
12:20 38.1 °F 29.2 °F 30.22 in East 4 mph 4 mph 70% 0.00 in 114 W/m2
12:25 38 °F 28.7 °F 30.21 in East 4 mph 4 mph 69% 0.00 in 97 W/m2
12:30 37.9 °F 28.6 °F 30.21 in East 5 mph 5 mph 69% 0.00 in 107 W/m2
12:35 37.9 °F 28.6 °F 30.20 in SE 5 mph 5 mph 69% 0.00 in 197 W/m2
12:40 38 °F 29.1 °F 30.20 in ESE 4 mph 4 mph 70% 0.00 in 155 W/m2
12:45 38 °F 28.7 °F 30.20 in East 5 mph 6 mph 69% 0.00 in 179 W/m2
12:50 38.1 °F 28.8 °F 30.20 in East 5 mph 5 mph 69% 0.00 in 142 W/m2
12:55 38.2 °F 28.9 °F 30.20 in SE 5 mph 5 mph 69% 0.00 in 127 W/m2
13:00 38.2 °F 29.3 °F 30.19 in East 4 mph 10 mph 70% 0.00 in 146 W/m2
13:05 38.2 °F 28.9 °F 30.19 in ESE 4 mph 10 mph 69% 0.00 in 169 W/m2
13:10 38.3 °F 29.7 °F 30.19 in SE 5 mph 5 mph 71% 0.00 in 193 W/m2
13:15 38.4 °F 29.5 °F 30.19 in ESE 5 mph 5 mph 70% 0.00 in 148 W/m2
13:20 38.4 °F 29.1 °F 30.19 in ESE 5 mph 7 mph 69% 0.00 in 139 W/m2
13:25 38.3 °F 29 °F 30.19 in East 5 mph 7 mph 69% 0.00 in 130 W/m2
13:30 38.6 °F 30.7 °F 30.19 in SE 5 mph 5 mph 73% 0.00 in 118 W/m2
13:35 38.5 °F 29.9 °F 30.19 in ESE 6 mph 6 mph 71% 0.00 in 125 W/m2
13:40 38.5 °F 29.9 °F 30.18 in SE 5 mph 5 mph 71% 0.00 in 142 W/m2
13:45 38.5 °F 30.6 °F 30.19 in SE 5 mph 5 mph 73% 0.00 in 132 W/m2
13:50 38.5 °F 29.9 °F 30.18 in East 5 mph 5 mph 71% 0.00 in 118 W/m2
13:55 38.6 °F 30 °F 30.18 in SE 5 mph 5 mph 71% 0.00 in 137 W/m2
14:00 38.7 °F 30.8 °F 30.19 in ESE 4 mph 4 mph 73% 0.00 in 178 W/m2
14:05 38.7 °F 30.4 °F 30.18 in SSE 4 mph 4 mph 72% 0.00 in 195 W/m2
14:10 38.6 °F 30.7 °F 30.18 in West 4 mph 4 mph 73% 0.00 in 185 W/m2
14:15 38.7 °F 30.8 °F 30.18 in South 3 mph 4 mph 73% 0.00 in 176 W/m2
14:20 38.5 °F 30.3 °F 30.18 in SE 3 mph 3 mph 72% 0.00 in 160 W/m2
14:25 38.5 °F 29.9 °F 30.17 in SE 4 mph 4 mph 71% 0.00 in 146 W/m2
14:30 38.6 °F 30.4 °F 30.17 in ESE 5 mph 5 mph 72% 0.00 in 142 W/m2
14:35 38.8 °F 30.5 °F 30.17 in SE 5 mph 5 mph 72% 0.00 in 130 W/m2
14:40 38.7 °F 30.4 °F 30.17 in SE 5 mph 5 mph 72% 0.00 in 130 W/m2
14:45 38.8 °F 30.5 °F 30.17 in SE 4 mph 5 mph 72% 0.00 in 107 W/m2
14:50 39 °F 30.7 °F 30.16 in SE 4 mph 5 mph 72% 0.00 in 100 W/m2
14:55 39 °F 30.7 °F 30.15 in SE 5 mph 5 mph 72% 0.00 in 127 W/m2
15:00 39.1 °F 30.1 °F 30.15 in ESE 5 mph 5 mph 70% 0.00 in 149 W/m2
15:05 39.2 °F 30.2 °F 30.14 in ESE 5 mph 6 mph 70% 0.00 in 149 W/m2
15:10 39.4 °F 30.4 °F 30.14 in SE 5 mph 5 mph 70% 0.00 in 158 W/m2
15:15 39.7 °F 31.1 °F 30.14 in SE 5 mph 6 mph 71% 0.00 in 218 W/m2
15:20 39.7 °F 30 °F 30.13 in ESE 5 mph 7 mph 68% 0.00 in 227 W/m2
15:25 40 °F 30.6 °F 30.13 in SE 6 mph 7 mph 69% 0.00 in 227 W/m2
15:30 40 °F 30.3 °F 30.13 in SE 6 mph 8 mph 68% 0.00 in 199 W/m2
15:35 40.2 °F 30.5 °F 30.12 in SE 6 mph 8 mph 68% 0.00 in 190 W/m2
15:40 40.4 °F 31 °F 30.12 in SSE 5 mph 6 mph 69% 0.00 in 190 W/m2
15:45 40.5 °F 30.8 °F 30.12 in SE 5 mph 6 mph 68% 0.00 in 202 W/m2
15:50 40.6 °F 29.7 °F 30.12 in ESE 5 mph 5 mph 65% 0.00 in 148 W/m2
15:55 40.7 °F 30.6 °F 30.12 in ESE 5 mph 5 mph 67% 0.00 in 241 W/m2
16:00 40.8 °F 29.9 °F 30.11 in ESE 5 mph 6 mph 65% 0.00 in 265 W/m2
16:05 40.9 °F 30 °F 30.11 in East 5 mph 6 mph 65% 0.00 in 236 W/m2
16:10 41 °F 29.7 °F 30.10 in ENE 5 mph 5 mph 64% 0.00 in 171 W/m2
16:15 41 °F 30.1 °F 30.09 in ESE 5 mph 5 mph 65% 0.00 in 148 W/m2
16:20 41 °F 29.7 °F 30.09 in East 5 mph 7 mph 64% 0.00 in 137 W/m2
16:25 41 °F 29.7 °F 30.08 in ESE 5 mph 7 mph 64% 0.00 in 149 W/m2
16:30 41 °F 29.7 °F 30.08 in ESE 5 mph 6 mph 64% 0.00 in 139 W/m2
16:35 41.1 °F 29.5 °F 30.08 in ESE 5 mph 6 mph 63% 0.00 in 156 W/m2
16:40 41.1 °F 29.5 °F 30.08 in SE 5 mph 5 mph 63% 0.00 in 185 W/m2
16:45 41.2 °F 29.9 °F 30.08 in ENE 5 mph 5 mph 64% 0.00 in 214 W/m2
16:50 41.3 °F 29.6 °F 30.07 in East 4 mph 4 mph 63% 0.00 in 211 W/m2
16:55 41.6 °F 29.5 °F 30.07 in SE 4 mph 4 mph 62% 0.00 in 197 W/m2
17:00 41.7 °F 30 °F 30.07 in South 4 mph 4 mph 63% 0.00 in 190 W/m2
17:05 41.8 °F 29.3 °F 30.07 in ESE 3 mph 4 mph 61% 0.00 in 171 W/m2
17:10 42 °F 29.5 °F 30.07 in ESE 3 mph 6 mph 61% 0.00 in 148 W/m2
17:15 42.1 °F 29.2 °F 30.07 in ESE 3 mph 6 mph 60% 0.00 in 151 W/m2
17:20 42.2 °F 29.3 °F 30.07 in East 4 mph 4 mph 60% 0.00 in 149 W/m2
17:25 42.2 °F 28.9 °F 30.07 in ESE 4 mph 4 mph 59% 0.00 in 155 W/m2
17:30 42.3 °F 29 °F 30.07 in ESE 4 mph 4 mph 59% 0.00 in 162 W/m2
17:35 42.3 °F 28.1 °F 30.06 in ESE 4 mph 4 mph 57% 0.00 in 160 W/m2
17:40 42.4 °F 28.2 °F 30.05 in East 4 mph 4 mph 57% 0.00 in 162 W/m2
17:45 42.4 °F 28.2 °F 30.04 in East 5 mph 5 mph 57% 0.00 in 153 W/m2
17:50 42.6 °F 28.8 °F 30.04 in SE 5 mph 5 mph 58% 0.00 in 158 W/m2
17:55 42.7 °F 28.9 °F 30.04 in East 5 mph 5 mph 58% 0.00 in 132 W/m2
18:00 42.7 °F 28.5 °F 30.04 in East 5 mph 5 mph 57% 0.00 in 107 W/m2
18:05 42.7 °F 28.5 °F 30.03 in East 5 mph 5 mph 57% 0.00 in 65 W/m2
18:10 42.6 °F 28.4 °F 30.03 in East 5 mph 5 mph 57% 0.00 in 53 W/m2
18:15 42.5 °F 27.9 °F 30.05 in ESE 4 mph 5 mph 56% 0.00 in 86 W/m2
18:20 42.5 °F 27.9 °F 30.04 in ESE 4 mph 4 mph 56% 0.00 in 83 W/m2
18:25 42.5 °F 27.9 °F 30.04 in ESE 4 mph 6 mph 56% 0.00 in 88 W/m2
18:30 42.5 °F 27.9 °F 30.03 in East 4 mph 4 mph 56% 0.00 in 102 W/m2
18:35 42.5 °F 28.3 °F 30.03 in East 5 mph 5 mph 57% 0.00 in 84 W/m2
18:40 42.6 °F 28.4 °F 30.03 in East 4 mph 4 mph 57% 0.00 in 90 W/m2
18:45 42.6 °F 28.8 °F 30.02 in ESE 4 mph 4 mph 58% 0.00 in 107 W/m2
18:50 42.7 °F 28.9 °F 30.01 in ESE 4 mph 4 mph 58% 0.00 in 160 W/m2
18:55 42.9 °F 29.1 °F 30.01 in East 3 mph 4 mph 58% 0.00 in 149 W/m2
19:00 43.1 °F 29.3 °F 30.00 in East 4 mph 4 mph 58% 0.00 in 113 W/m2
19:05 43.2 °F 29.4 °F 29.99 in East 5 mph 5 mph 58% 0.00 in 86 W/m2
19:10 43.3 °F 29.9 °F 29.99 in ENE 5 mph 6 mph 59% 0.00 in 86 W/m2
19:15 43.3 °F 29.9 °F 29.99 in ESE 4 mph 6 mph 59% 0.00 in 102 W/m2
19:20 43.2 °F 30.2 °F 29.99 in East 5 mph 5 mph 60% 0.00 in 107 W/m2
19:25 43.3 °F 30.7 °F 29.98 in SSE 5 mph 8 mph 61% 0.00 in 97 W/m2
19:30 43.3 °F 31.5 °F 29.98 in ESE 7 mph 7 mph 63% 0.00 in 46 W/m2
19:35 43.1 °F 31.4 °F 29.99 in ESE 6 mph 7 mph 63% 0.00 in 30 W/m2
19:40 43.1 °F 31.7 °F 30.00 in ESE 5 mph 6 mph 64% 0.00 in 21 W/m2
19:45 43.1 °F 32.1 °F 30.00 in East 5 mph 8 mph 65% 0.00 in 9 W/m2
19:50 43.1 °F 31.7 °F 29.98 in ESE 6 mph 6 mph 64% 0.00 in 5 W/m2
19:55 43 °F 30.9 °F 29.97 in East 6 mph 6 mph 62% 0.00 in 5 W/m2
20:00 42.9 °F 31.2 °F 29.98 in ENE 4 mph 4 mph 63% 0.00 in 0 W/m2
20:05 42.8 °F 31.1 °F 30.00 in ESE 4 mph 6 mph 63% 0.00 in 0 W/m2
20:10 42.6 °F 30.9 °F 29.98 in East 4 mph 6 mph 63% 0.00 in 0 W/m2
20:15 42.4 °F 30.7 °F 30.01 in East 5 mph 6 mph 63% 0.00 in 0 W/m2
20:20 42.3 °F 31 °F 30.01 in East 4 mph 4 mph 64% 0.00 in 0 W/m2
20:25 42.2 °F 31.3 °F 30.03 in SE 3 mph 4 mph 65% 0.00 in 0 W/m2
20:30 42.1 °F 31.6 °F 30.02 in SE 2 mph 2 mph 66% 0.00 in 0 W/m2
20:35 42 °F 31.5 °F 30.02 in ESE 2 mph 4 mph 66% 0.00 in 0 W/m2
20:40 41.8 °F 32 °F 30.01 in ESE 3 mph 3 mph 68% 0.00 in 0 W/m2
20:45 41.6 °F 32.2 °F 30.01 in ENE 3 mph 4 mph 69% 0.00 in 0 W/m2
20:50 41.4 °F 32.3 °F 30.01 in East 3 mph 4 mph 70% 0.00 in 0 W/m2
20:55 41.2 °F 32.5 °F 30.00 in SE 3 mph 4 mph 71% 0.00 in 0 W/m2
21:00 40.9 °F 32.6 °F 30.00 in ESE 3 mph 3 mph 72% 0.00 in 0 W/m2
21:05 40.6 °F 32.6 °F 29.99 in ESE 3 mph 4 mph 73% 0.00 in 0 W/m2
21:10 40.4 °F 32.8 °F 29.99 in East 4 mph 4 mph 74% 0.00 in 0 W/m2
21:15 40.3 °F 33 °F 30.00 in ESE 4 mph 4 mph 75% 0.00 in 0 W/m2
21:20 40.3 °F 33 °F 29.99 in ESE 4 mph 4 mph 75% 0.00 in 0 W/m2
21:25 40.3 °F 33.3 °F 29.99 in East 4 mph 6 mph 76% 0.00 in 0 W/m2
21:30 40.4 °F 33.4 °F 29.99 in ESE 5 mph 5 mph 76% 0.00 in 0 W/m2
21:35 40.4 °F 33.4 °F 30.00 in ENE 4 mph 5 mph 76% 0.00 in 0 W/m2
21:40 40.5 °F 33.2 °F 30.00 in East 3 mph 3 mph 75% 0.00 in 0 W/m2
21:45 40.4 °F 33.4 °F 30.00 in ESE 2 mph 4 mph 76% 0.00 in 0 W/m2
21:50 40.4 °F 33.1 °F 30.00 in SE 2 mph 2 mph 75% 0.04 in 0 W/m2
21:55 40.4 °F 33.4 °F 30.01 in East 2 mph 2 mph 76% 0.18 in 0 W/m2
22:00 40.3 °F 33.7 °F 30.00 in ESE 3 mph 8 mph 77% 0.07 in 0 W/m2
22:05 40.2 °F 33.6 °F 30.00 in East 3 mph 8 mph 77% 0.04 in 0 W/m2
22:10 40.1 °F 33.5 °F 30.01 in ENE 3 mph 3 mph 77% 0.04 in 0 W/m2
22:15 40 °F 33.7 °F 30.01 in East 2 mph 3 mph 78% 0.07 in 0 W/m2
22:20 40 °F 33.7 °F 30.01 in East 2 mph 2 mph 78% 0.07 in 0 W/m2
22:25 39.8 °F 33.8 °F 30.00 in East 2 mph 2 mph 79% 0.05 in 0 W/m2
22:30 39.8 °F 33.8 °F 30.01 in East 2 mph 2 mph 79% 0.04 in 0 W/m2
22:35 39.7 °F 34 °F 30.00 in East 1 mph 2 mph 80% 0.00 in 0 W/m2
22:40 39.7 °F 34 °F 30.00 in ESE 1 mph 2 mph 80% 0.00 in 0 W/m2
22:45 39.6 °F 33.9 °F 29.99 in ESE 2 mph 2 mph 80% 0.00 in 0 W/m2
22:50 39.6 °F 33.9 °F 29.99 in East 2 mph 3 mph 80% 0.00 in 0 W/m2
22:55 39.6 °F 34.2 °F 29.98 in East 2 mph 3 mph 81% 0.00 in 0 W/m2
23:00 39.7 °F 34.3 °F 29.97 in ESE 3 mph 4 mph 81% 0.00 in 0 W/m2
23:05 39.9 °F 34.5 °F 29.97 in ESE 4 mph 4 mph 81% 0.00 in 0 W/m2
23:10 40.3 °F 34.9 °F 29.96 in ESE 4 mph 6 mph 81% 0.00 in 0 W/m2
23:15 40.8 °F 35.4 °F 29.96 in ESE 5 mph 6 mph 81% 0.00 in 0 W/m2
23:20 41.4 °F 35.7 °F 29.95 in ESE 7 mph 7 mph 80% 0.00 in 0 W/m2
23:25 41.9 °F 35.9 °F 29.94 in ESE 8 mph 8 mph 79% 0.00 in 0 W/m2
23:30 42.2 °F 35.8 °F 29.94 in SE 8 mph 8 mph 78% 0.00 in 0 W/m2
23:35 42.4 °F 35.4 °F 29.94 in ESE 8 mph 9 mph 76% 0.00 in 0 W/m2
23:40 42.6 °F 35.6 °F 29.93 in SSE 8 mph 8 mph 76% 0.00 in 0 W/m2
23:45 42.7 °F 35.7 °F 29.93 in SE 8 mph 8 mph 76% 0.00 in 0 W/m2
23:50 42.8 °F 35.1 °F 29.93 in SE 8 mph 8 mph 74% 0.00 in 0 W/m2
23:55 42.9 °F 35.5 °F 29.92 in SE 8 mph 8 mph 75% 0.00 in 0 W/m2
Sand Point, Michigan, USA
Compliments of Weather Underground - 2 mb